User: anonymous   Login
Location: Saint John
(45.2733°N, 66.0633°W)
Time: 03:02:01
(UTC-03:00)
Language:

BlueWalker 3 - Orbit

View from above orbital plane
View from above orbital plane
View from above satellite
View from above satellite

Ground track
Ground track

The orbit data is extracted from the following two-line orbital elements,

1 53807U 22111AL  24109.25776032  .00011187  00000-0  45379-3 0  9997
2 53807  53.2391 109.5938 0007351 280.7697  79.2475 15.25098245 89088
Epoch (UTC): 18 April 2024 06:11:10
Eccentricity: 0.0007351
inclination: 53.2391°
perigee height: 485 km
apogee height: 495 km
right ascension of ascending node: 109.5938°
argument of perigee: 280.7697°
revolutions per day: 15.25098245
mean anomaly at epoch: 79.2475°
orbit number at epoch: 8908

The dashed part of the orbit path shows where the satellite is in the earth's shadow,  

DLR